This is the latest recevied weather packets stored in our database for station/object OE6JUE. If no packets are shown the sender has not sent any weather packets the latest 1 day(s).
| Time | Temp. | Humidity | Pressure | Rain* | Wind** | Luminosity | Snow |
|---|---|---|---|---|---|---|---|
| 1777999933 | 18.89° C | 47% | 1010.9 hPa | 0 mm | 1.79 m/s, 180° | - | - |
| 1777999634 | 19.44° C | 46% | 1010.9 hPa | 0 mm | 2.24 m/s, 135° | - | - |
| 1777999333 | 19.44° C | 46% | 1010.9 hPa | 0 mm | 2.24 m/s, 180° | - | - |
| 1777999033 | 19.44° C | 45% | 1010.8 hPa | 0 mm | 1.79 m/s, 180° | - | - |
| 1777998733 | 20° C | 45% | 1010.8 hPa | 0 mm | 1.79 m/s, 180° | - | - |
| 1777998433 | 20° C | 44% | 1010.9 hPa | 0 mm | 1.34 m/s, 180° | - | - |
| 1777998133 | 20.56° C | 43% | 1010.9 hPa | 0 mm | 1.34 m/s, 90° | - | - |
| 1777997833 | 20.56° C | 44% | 1010.9 hPa | 0 mm | 1.79 m/s, 135° | - | - |
| 1777997533 | 20° C | 44% | 1011 hPa | 0 mm | 2.68 m/s, 180° | - | - |
| 1777997233 | 20° C | 45% | 1011.1 hPa | 0 mm | 2.24 m/s, 180° | - | - |
| 1777996633 | 20° C | 44% | 1011.2 hPa | 0 mm | 2.68 m/s, 225° | - | - |
| 1777996333 | 20° C | 44% | 1011.3 hPa | 0 mm | 1.79 m/s, 158° | - | - |
| 1777996033 | 20° C | 44% | 1011.2 hPa | 0 mm | 2.24 m/s, 225° | - | - |
| 1777995733 | 20° C | 44% | 1011.2 hPa | 0 mm | 1.34 m/s, 225° | - | - |
| 1777995433 | 20° C | 44% | 1011.2 hPa | 0 mm | 2.68 m/s, 180° | - | - |
| 1777995133 | 20° C | 44% | 1011.3 hPa | 0 mm | 1.79 m/s, 203° | - | - |
| 1777994832 | 20° C | 44% | 1011.2 hPa | 0 mm | 1.79 m/s, 180° | - | - |
| 1777994533 | 20° C | 44% | 1011.2 hPa | 0 mm | 2.24 m/s, 180° | - | - |
| 1777994233 | 20° C | 44% | 1011.3 hPa | 0 mm | 1.79 m/s, 225° | - | - |
| 1777993933 | 20.56° C | 44% | 1011.2 hPa | 0 mm | 1.34 m/s, 315° | - | - |
| 1777993633 | 20.56° C | 44% | 1011.3 hPa | 0 mm | 1.34 m/s, 180° | - | - |
| 1777993333 | 20.56° C | 43% | 1011.3 hPa | - | 1.34 m/s, 225° | - | - |
| 1777993046 | 20.56° C | 43% | 1011.3 hPa | 0 mm | 1.34 m/s, 180° | - | - |
| 1777992733 | 20.56° C | 43% | 1011.5 hPa | 0 mm | 1.79 m/s, 135° | - | - |
| 1777992433 | 21.11° C | 43% | 1011.3 hPa | 0 mm | 2.68 m/s, 135° | - | - |
* Rain latest hour (hover to see other rain measurements)
** Current wind speed in m/s (hover to see current wind gust speed)